Flag for Germany Weather past 2 weeks in Herford, North Rhine-Westphalia, Germany

Now
73 °F

Partly cloudy.


Feels Like: 76 °F
Forecast: 66 / 97 °F
Wind: 7 mph from North

Location: Bueckeburg

Current Time: Jul 3, 2015 at 5:36:26 AM

Latest Report: Jul 3, 2015 at 4:20 AM


Visibility: N/A

Pressure: 30.18 "Hg

Humidity: 69%

Dew point: 63 °F

Location of HerfordLocation

Historic Weather in Herford — Graph

°F

Herford temperature yesterday

Maximum temperature yesterday: 91 °F (at 3:20 PM)
Minimum temperature yesterday: 72 °F (at 4:20 AM)
Average temperature yesterday: 81 °F

Past Weeks' High & Low Weather Summary

 TemperatureHumidityPressure
High91 °F (Jul 2, 3:20 PM)100% (Jun 18, 7:20 AM)30.21 "Hg (Jun 18, 7:20 AM)
Low48 °F (Jun 22, 11:20 PM)34% (Jul 2, 5:20 PM)29.65 "Hg (Jun 22, 9:20 PM)
Average63 °F70%30.04 "Hg
* Reported Jun 18 4:20 AM — Jul 3 4:20 AM, Herford, Weather by CustomWeather, © 2015

Note: Actual official high and low records may vary slightly from our data, if they occured in-between our weather recording intervals... More about our weather records

Advertising

Herford weather history for previous 24 hours

 ConditionsComfort  
Time TempWeatherWind HumidityBarometerVisibility
4:20 AM
Fri, Jul 3
73 °FPartly cloudy.7 mph69%30.18 "HgN/A
3:20 AM75 °FPassing clouds.6 mph54%30.18 "HgN/A
2:20 AM79 °FPassing clouds.8 mph45%30.12 "HgN/A
1:20 AM81 °FPassing clouds.14 mph39%30.12 "HgN/A
12:20 AM82 °FPassing clouds.12 mph37%30.12 "HgN/A
11:20 PM
Thu, Jul 2
82 °FPassing clouds.14 mph40%30.09 "HgN/A
10:20 PM79 °FPassing clouds.3 mph51%30.12 "HgN/A
9:20 PM82 °FWarm.3 mph48%30.12 "HgN/A
8:20 PM86 °FPassing clouds.8 mph43%30.09 "HgN/A
7:20 PM88 °FPassing clouds.13 mph43%30.09 "HgN/A
6:20 PM90 °FPassing clouds.9 mph43%30.12 "HgN/A
5:20 PM91 °FPassing clouds.12 mph34%30.09 "HgN/A
4:20 PM91 °FPassing clouds.12 mph36%30.12 "HgN/A
3:20 PM91 °FPassing clouds.12 mph36%30.12 "HgN/A
2:20 PM90 °FHot.10 mph41%30.12 "HgN/A
1:20 PM88 °FWarm.10 mph43%30.12 "HgN/A
12:20 PM86 °FWarm.7 mph46%30.12 "HgN/A
11:20 AM84 °FWarm.7 mph45%30.12 "HgN/A
10:20 AM82 °FWarm.8 mph45%30.12 "HgN/A
9:20 AM79 °FWarm.2 mph48%30.12 "HgN/A
8:20 AM75 °FMild.3 mph54%30.12 "HgN/A
7:20 AM73 °FMild.5 mph50%30.12 "HgN/A
6:20 AM72 °FMild.1 mph50%30.12 "HgN/A
5:20 AM72 °FMild.5 mph47%30.12 "HgN/A
Weather by CustomWeather, © 2015

See weather overviewHow to use our weather pages